Tracking 30995 objects as of 6-Jul-2025
HD Live streaming from Space Station
objects crossing your sky now

STARLINK-1271

Track STARLINK-1271 now!
10-day predictions
STARLINK-1271 is classified as:


NORAD ID: 45217
Int'l Code: 2020-012AR
Perigee: 553.4 km
Apogee: 555.3 km
Inclination: 53.1 °
Period: 95.6 minutes
Semi major axis: 6925 km
RCS: Unknown
Launch date: February 17, 2020
Source: United States (US)
Launch site: AIR FORCE EASTERN TEST RANGE (AFETR)
Your satellite tracking list
Your tracking list is empty




NASA's NSSDC Master Catalog

Two Line Element Set (TLE):
1 45217U 20012AR  25186.84285491  .00000109  00000-0  26214-4 0  9996
2 45217  53.0549  54.7550 0001345  87.0015 273.1128 15.06390083296979
Source of the keplerian elements: AFSPC